Regional Weather Roundup
Issued by NWS Pendleton, OR

Home | Current Version | Previous Version | Text Only | Print | Product List | Glossary On
Versions: 1 2 3 4 5 6 7 8 9 10 11 12 13 14 15 16 17 18 19 20 21 22 23 24 25 26 27 28 29 30 31 32 33 34 35 36 37 38 39 40 41 42 43 44 45 46 47 48 49 50
000
ASUS46 KPDT 301125
RWRPDT
PENDLETON REGIONAL WEATHER ROUNDUP
NATIONAL WEATHER SERVICE PENDLETON OREGON
400 AM PDT SAT APR 30 2016

NOTE: FAIR INDICATES FEW OR NO CLOUDS BELOW 12,000 FEET WITH NO
SIGNIFICANT WEATHER AND/OR OBSTRUCTIONS TO VISIBILITY.

# INDICATES UNOFFICIAL STATION AND DATA

WAZ520-301210-
EAST SLOPES OF WASHINGTON CASCADES

CITY            SKY/WX      TMP DP  RH  WIND    PRES   REMARKS
#CLE ELUM HS    N/A         44  34  68  NW7     30.14R
#CLE ELUM 2NW   N/A         43  34  70  SW5     N/A
#CLE ELUM LAKE  N/A         40  33  76  CALM    30.19R
#GLENWOOD       N/A         28  26  92  CALM    30.21R
#MANASTASH CYN  N/A         44  30  58  W1      30.13R
#NELSON 3SW     N/A         41  33  73  CALM    30.39R
#NILE           N/A         44  34  68  SW2     29.48R
#TEANAWAY 4NE   N/A         39  35  85  N1      N/A
#TROUT LAKE 1NE N/A         42  34  73  CALM    30.19R
#TROUT LAKE 1E  N/A         37  32  82  CALM    30.15R
$$

WAZ521-301210-
SIMCOE HIGHLANDS

CITY            SKY/WX      TMP DP  RH  WIND    PRES   REMARKS
#BICKLETON HS   N/A         45  22  40  N7      N/A
#CENTERVILLE 1SWN/A         43  38  82  W7      30.15R
#GOLDENDALE 1NE N/A         35  27  72  N1      N/A
#GOODNOE HILLS  N/A         47  40  76  SW10    30.06R
#LYLE 6NE       N/A         45  41  86  S3      30.17R
$$

WAZ026-301210-
KITTITAS VALLEY

CITY            SKY/WX      TMP DP  RH  WIND    PRES   REMARKS
ELLENSBURG AP   CLOUDY      49  34  56  NW20G29 30.16R WCI 42
YTC-OPS AREA    MOCLDY      42  32  67  W29G36  30.13R WCI 31
#ELLENSBURG CWU N/A         47  35  63  NW12    30.11R WCI 42
#ELLENSBURG 3NE N/A         46  36  68  N13     30.16R WCI 40
#ELLENSBURG     N/A         50  38  63  NW5     N/A
#KITTITAS 3S    N/A         47  36  65  NW6     30.14R
#THORP 6N       N/A         43  35  73  W18G26  30.19R WCI 35
$$

WAZ027-301210-
YAKIMA VALLEY

CITY            SKY/WX      TMP DP  RH  WIND    PRES   REMARKS
SUNNYSIDE AP    MOCLDY      50  35  56  W9      30.15R
YAKIMA AIRPORT  CLOUDY      55  32  41  NW7     30.16R
YAKIMA-VAGABOND MOCLDY      52  32  46  N13     30.14R
#GRANDVIEW      N/A         52  33  48  SW1     30.16R
#MABTON         N/A         53  36  52  SW5     30.14R
#NACHES 2SW     N/A         49  35  58  W15G24  30.12S WCI 43
#TERRACE HTS    N/A         52  35  52  NW6     30.11R
#TOPPENISH      N/A         50  34  54  CALM    30.07R
#WEST VALLEY    N/A         52  32  46  NW9     30.13R
#W YAKIMA       N/A         51  34  52  NE6     30.16R
#WHITE SWAN 5E  N/A         40  33  76  NW2     30.16R
#WILEY CITY 3W  N/A         48  28  46  CALM    30.12R
$$

WAZ028-301210-
LOWER COLUMBIA BASIN...WASHINGTON

CITY            SKY/WX      TMP DP  RH  WIND    PRES   REMARKS
PASCO           CLOUDY      53  37  54  S5      30.14R
PROSSER AWOS    N/A         54  36  50  SW8     30.18R
RICHLAND AWOS   CLOUDY      51  39  63  CALM    30.15R
#BENTON CITY    N/A         53  35  50  SW10    30.04R
#CONNELL 5N     N/A         47  44  89  CALM    30.11R
#CONNELL 5NW    N/A         48  44  86  CALM    30.08R
#ELTOPIA 6NW    N/A         51  41  68  CALM    29.09R
#KAHLOTUS       N/A         48  44  86  W5      30.11R
#KENNEWICK 3S   N/A         51  38  61  N1      30.14R
#PATERSON       N/A         50  42  74  CALM    30.14R
#SAGEMOOR 2W    N/A         49  41  74  CALM    29.98R
#TOUCHET 2S     N/A         52  41  66  SW7     30.12R
#WEST PASCO     N/A         52  38  59  CALM    30.22R
$$

WAZ029-301210-
FOOTHILLS OF THE BLUES...WASHINGTON

CITY            SKY/WX      TMP DP  RH  WIND    PRES   REMARKS
WALLA WALLA AP  CLOUDY      49  41  74  S10     30.14R
#CLYDE 6NW      N/A         47  42  83  S7      30.13R
#DAYTON SCHOOL  N/A         48  35  60  SW2     30.15R
#LOWDEN 2SE     N/A         50  43  77  CALM    30.11R
#PLEASANT VIEW 1N/A         45  42  89  S7      30.16R
#PRESCOTT       N/A         49  45  86  CALM    30.13R
#SUDBURY        N/A         57  N/A N/A CALM    N/A
#WHITMAN COLLEGEN/A         50  42  74  SE3     30.20R
#WAITSBURG 5S   N/A         46  40  79  S3      30.24R
#WAITSBURG 8N   N/A         46  28  49  S5      30.00S
#WALLA WALLA U  N/A         51  44  77  CALM    30.14R
#WHITMAN MISSIONN/A         50  45  83  CALM    30.15R
$$

WAZ030-301210-
BLUE MOUNTAINS...WASHINGTON

CITY            SKY/WX      TMP DP  RH  WIND    PRES   REMARKS
#DIXIE 5SE      N/A         43  40  89  S10     30.05R
$$

ORZ009-041-WAZ024-301210-
COLUMBIA RIVER GORGE

CITY            SKY/WX      TMP DP  RH  WIND    PRES   REMARKS
THE DALLES AP   CLEAR       52  41  66  NW9     30.20R
#ARLINGTON AIRPON/A         48  40  74  W3      30.18R
#CELILO DOT     N/A         54  40  59  SW8     N/A
#MARYHILL 2W    N/A         53  39  59  NW9     N/A
#MOSIER 1S      N/A         50  31  48  W12     30.21R
#MURDOCK        N/A         53  43  69  W18G26  30.17R
#RUFUS DOT      N/A         55  41  59  W16     N/A

$$

ORZ510-301210-
NORTH CENTRAL OREGON

CITY            SKY/WX      TMP DP  RH  WIND    PRES   REMARKS
#ANTELOPE       N/A         30  27  88  NE3     30.11R
#COW CYN RST AREN/A         39  35  85  SW2     N/A
#DUFUR 9E       N/A         44  37  76  W8      30.24R
#GRASS VALLEY   N/A         41  37  86  CALM    N/A
#GRASS VALLEY 1SN/A         39  34  82  W1      30.11R
#KENT DOT       N/A         37  31  79  N10     N/A
#MAUPIN SCHOOL  N/A         43  36  76  CALM    30.24R
#MORO SCHOOL    N/A         46  41  83  W10     30.17R
#SHANIKO 5WSW   N/A         36  32  85  S5      N/A
#TYGH VALLEY 2NEN/A         38  33  82  CALM    30.20R
#WAPANITIA AIRPON/A         42  37  82  W1      30.21R
#WASCO DOT      N/A         46  40  79  SW3     N/A
#WASCO 5NE      N/A         45  40  82  SW5     30.17R
$$

ORZ511-301210-
CENTRAL OREGON

CITY            SKY/WX      TMP DP  RH  WIND    PRES   REMARKS
BEND AIRPORT    CLEAR       34  28  78  CALM    30.20R
MADRAS AIRPORT  CLEAR       32  32  100 SE5     30.23R
PRINEVILLE AP   CLEAR       28  28  100 CALM    30.20R
REDMOND AIRPORT CLEAR       30  27  88  SE3     30.20R
#ASHWOOD SCHOOL N/A         34  32  92  CALM    30.16R
#BEND 1SW       N/A         29  27  92  S1      N/A
#BEND-AWBREY    N/A         35  32  89  CALM    30.21R
#BEND-KIM LN    N/A         34  30  85  S3      30.17R
#CULVER         N/A         33  29  85  CALM    30.19R
#LAKE BILLY CHINN/A         36  N/A N/A CALM    30.28R
#POWELL BUTTE   N/A         34  29  82  SW2     30.05R
#PRINEVILLE 3N  N/A         36  33  89  CALM    30.22R
#WARM SPRINGS   N/A         36  32  85  CALM    30.18R

$$


ORZ509-301210-
EAST SLOPES OF OREGON CASCADES

CITY            SKY/WX      TMP DP  RH  WIND    PRES   REMARKS
SISTERS AWOS    N/A         39  34  82  W5      30.15S
#BLUE BOX PASS  N/A         36  N/A N/A S2      N/A
#BLACK BUTTE RNCN/A         37  34  89  CALM    30.21R
#CAMP SHERMAN   N/A         28  25  88  CALM    30.31R
#LA PINE 4NW    N/A         25  22  88  CALM    30.26R
#LAVA BUTTE DOT N/A         27  26  96  CALM    N/A
#SISTERS AIRPOR N/A         39  37  92  N1      30.17S
#SISTERS ODOT   N/A         39  N/A N/A CALM    N/A
#SISTERS 3N     N/A         32  25  75  CALM    30.17S
#SUNRIVER       N/A         26  24  92  CALM    30.26R
#SUTTLE LK DOT  N/A         33  33  100 N24G33  N/A    WCI 20
#TUMALO 3W      N/A         35  29  78  W3      30.10R
#WANOGA BUTTE D N/A         31  21  66  NE2     N/A

$$

ORZ044-301210-
LOWER COLUMBIA BASIN...OREGON

CITY            SKY/WX      TMP DP  RH  WIND    PRES   REMARKS
HERMISTON       CLOUDY      51  40  66  SW8     30.15R
#BOARDMAN SCHOOLN/A         51  42  71  SW5     30.16R
#ECHO 8SW       N/A         51  40  66  SW7     30.17R
#I-84 EX 198 DOTN/A         51  39  63  E9      N/A
#UMATILLA SCHOOLN/A         46  44  93  CALM    30.16R
#UMATILLA       N/A         48  39  71  CALM    30.10R
$$

ORZ507-301210-
NORTHERN FOOTHILLS OF THE BLUES

CITY            SKY/WX      TMP DP  RH  WIND    PRES   REMARKS
PENDLETON AIRPT CLOUDY      50  36  58  W8      30.14R
#ADAMS 3WNW     N/A         46  40  79  CALM    30.15R
#ATHENA         N/A         46  40  79  CALM    30.18R
#CAYUSE         N/A         49  40  71  SW2     30.15R
#HELIX SCHOOL   N/A         46  40  79  CALM    30.14R
#HELIX 3N       N/A         45  40  82  N2      30.11R
#HELIX 6SW      N/A         46  40  79  CALM    30.14R
#HOLDMAN 5SE    N/A         48  41  77  W2      30.14R
#HOLDMAN 6E     N/A         45  40  82  E1      29.96R
#M-F FERNDALE   N/A         50  40  68  CALM    30.13R
#M-F GROVE ELEM N/A         50  39  66  CALM    30.12R
#M-FREEWATER 5SEN/A         50  39  66  S3      30.14R
#PENDLETON DNTN N/A         51  35  54  CALM    30.16S
#PDT AQUATIC CTRN/A         52  34  50  CALM    30.16R
#PDT SUNRIDGE   N/A         50  38  63  CALM    30.17R
#PENDLETON 7NW  N/A         50  39  66  CALM    27.45S
#PILOT ROCK     N/A         45  34  65  S2      30.15R
#TUTUILLA       N/A         47  40  76  CALM    30.16R
#UMAPINE 2E     N/A         50  43  77  CALM    30.11S
#WESTON SCHOOL  N/A         47  36  65  SW2     30.07R

$$

ORZ508-301210-
SOUTHERN FOOTHILLS OF THE BLUES

CITY            SKY/WX      TMP DP  RH  WIND    PRES   REMARKS
#AJAX           N/A         46  31  56  S6      27.92R
#CONDON SCHOOL  N/A         41  36  82  SW5     30.12R
#CONDON 5W      N/A         38  33  82  W10     30.14R
#FOSSIL SCHOOL  N/A         40  34  79  CALM    30.12R
#HEPPNER EOC    N/A         45  38  76  CALM    30.11R
#HEPPNER 4NE    N/A         43  37  79  SW2     30.17R
#LEXINGTON 2SE  N/A         46  39  76  CALM    30.14R
#MIKKALO        N/A         48  36  63  W7      30.26
#RUGGS 5NE      N/A         42  37  82  SW6     30.30S
#RUGGS 2SW      N/A         44  36  73  W8      30.19R

$$

ORZ502-503-301210-
BLUE MOUNTAINS

CITY            SKY/WX      TMP DP  RH  WIND    PRES   REMARKS
#BATTLE MTN DOT N/A         38  37  96  CALM    N/A
#GREENHORN 9SW  N/A         40  35  82  W1      26.32R
#HARDMAN 10S    N/A         61  34  36  N5      30.22S
#HEPPNER 15SE   N/A         36  35  96  N3      30.06R
#LADD CYN SMT   N/A         43  31  62  W10     N/A
#LADD CREEK ODOTN/A         45  34  65  NE6     N/A
#LONG CREEK HS  N/A         40  39  96  CALM    N/A
#N POWDER DOT   N/A         44  36  73  N9      N/A
#PIKES PEAK     N/A         40  34  79  S15     27.99S WCI 32
#TOLLGATE       N/A         33  32  96  S2      29.96R
#TROY SCHOOL    N/A         47  44  89  CALM    29.97R
#UKIAH          N/A         34  32  92  CALM    30.09R
#WESTON 4E      N/A         41  37  86  S1      30.14R
$$

ORZ505-301210-
JOHN DAY BASIN

CITY            SKY/WX      TMP DP  RH  WIND    PRES   REMARKS
JOHN DAY        CLOUDY      42  37  82  W8      30.16R
#DAYVILLE SCHOOLN/A         46  37  71  CALM    30.13R
#MITCHELL       N/A         44  39  82  CALM    30.32R
#MITCHELL 8NW   N/A         41  33  73  CALM    30.40R
#MONUMENT HS    N/A         49  35  58  NW3     30.15R
#MT. VERNON 5SE N/A         40  34  79  W2      30.10R
#SPRAY SCHOOL   N/A         48  N/A N/A CALM    N/A
#WINLOCK        N/A         42  34  73  E3      30.12R
$$

ORZ506-301210-
OCHOCO AND JOHN DAY HIGHLANDS

CITY            SKY/WX      TMP DP  RH  WIND    PRES   REMARKS
#HORSE RIDGE DO N/A         33  30  89  S1      N/A
#KEYES SMT DOT  N/A         38  33  82  N7      N/A
#PAULINA SCHOOL N/A         48  34  58  N3      29.36R
#PINE MTN OBS   N/A         29  28  96  N7      N/A
#PRAIRIE CITY   N/A         42  37  82  CALM    30.12R
#SENECA         N/A         38  N/A N/A N5      N/A
#SENECA 9NW     N/A         37  33  85  CALM    30.14R
$$

ORZ049-301210-
GRANDE RONDE VALLEY

CITY            SKY/WX      TMP DP  RH  WIND    PRES   REMARKS
LA GRANDE       CLOUDY      46  28  49  N13     30.13R WCI 40
#COVE           N/A         44  40  86  CALM    30.15R
#COVE SCHOOL    N/A         44  39  82  CALM    30.14R
#COVE 6NW       N/A         39  35  85  CALM    29.63S
#ELGIN 3N       N/A         44  34  68  CALM    30.11R
#ELGIN 1E       N/A         45  35  68  CALM    N/A
#ISLAND CITY 4N N/A         42  40  93  CALM    30.32R
#LADD CYN DOT   N/A         46  36  68  N7      N/A
#UNION 1S       N/A         46  36  68  NW7     30.05R
$$

ORZ050-301210-
WALLOWA COUNTY

CITY            SKY/WX      TMP DP  RH  WIND    PRES   REMARKS
JOSEPH AIRPORT  LGT RAIN    41  41  100 CALM    30.12R
#ENTERPRISE AP  N/A         49  29  46  CALM    30.04R
#ENTERPRISE HS  N/A         42  40  93  CALM    30.13R
#IMNAHA SCHOOL  N/A         48  47  96  CALM    30.11R
#IMNAHA 10S     N/A         43  42  96  CALM    30.09R
#JOSEPH 3N      N/A         40  36  85  N1      30.12R
#JOSEPH 3W      N/A         38  38  100 CALM    29.93R
#LOSTINE        N/A         42  40  93  CALM    29.93R
#MT HOWARD 8000 N/A         27  26  96  CALM    30.06R
#PROMISE 1S     N/A         42  38  86  E1      30.23R
#WALLOWA SCHOOL N/A         44  37  76  W1      30.09R



$$



USA.gov is the U.S. government's official web portal to all federal, state and local government web resources and services.